When you browse on this site, cookies collect data to enhance your experience and personalize the content and advertising you see.
Visit our Privacy Policy to learn more. By continuing to use the site, you agree to this use of cookies and data.
  • In Hungary
  • List of Countries
  • For 7 days
  • Water Temperature
  • Weather Map
  • News
  • Weather Widgets
  • user-avatar
    Login

    Hourly Weather Willebroek

    Today, 8 December, Sunday

    Time Temperature Precipitation Wind Pressure Humidity
    00:00 +5°C° 0 mm 6 mps 758 mmHg 85%
    01:00 +6°C° 0 mm 7 mps 757 mmHg 85%
    02:00 +6°C° 0 mm 8 mps 756 mmHg 85%
    03:00 +6°C° 0 mm 9 mps 754 mmHg 85%
    04:00 +7°C° 0.4 mm 9 mps 754 mmHg 85%
    05:00 +7°C° 0.4 mm 10 mps 753 mmHg 86%
    06:00 +7°C° 0 mm 9 mps 753 mmHg 85%
    07:00 +7°C° 0.7 mm 9 mps 752 mmHg 85%
    08:00 +8°C° 0.7 mm 10 mps 751 mmHg 85%
    09:00 +8°C° 0.7 mm 10 mps 751 mmHg 85%
    10:00 +9°C° 0.1 mm 10 mps 751 mmHg 79%
    11:00 +10°C° 0.1 mm 9 mps 751 mmHg 73%
    12:00 +10°C° 0.1 mm 8 mps 751 mmHg 67%
    13:00 +10°C° 0 mm 8 mps 751 mmHg 68%
    14:00 +9°C° 0 mm 8 mps 751 mmHg 68%
    15:00 +9°C° 0 mm 7 mps 751 mmHg 69%
    16:00 +8°C° 0.4 mm 7 mps 750 mmHg 73%
    17:00 +7°C° 0.4 mm 8 mps 750 mmHg 78%
    18:00 +6°C° 0.4 mm 8 mps 750 mmHg 82%
    19:00 +6°C° 0.3 mm 8 mps 750 mmHg 80%
    20:00 +5°C° 0.3 mm 7 mps 750 mmHg 77%
    21:00 +5°C° 0.3 mm 7 mps 749 mmHg 75%
    22:00 +5°C° 0.1 mm 8 mps 749 mmHg 76%
    23:00 +5°C° 0.1 mm 8 mps 748 mmHg 76%

    Tomorrow, 9 December, Monday

    Time Temperature Precipitation Wind Pressure Humidity
    00:00 +5°C° 0.1 mm 9 mps 748 mmHg 77%
    01:00 +5°C° 0.6 mm 9 mps 747 mmHg 80%
    02:00 +5°C° 0.6 mm 8 mps 745 mmHg 82%
    03:00 +4°C° 0.6 mm 8 mps 744 mmHg 85%
    04:00 +5°C° 1.1 mm 8 mps 744 mmHg 84%
    05:00 +5°C° 1.1 mm 7 mps 744 mmHg 82%
    06:00 +5°C° 1.1 mm 7 mps 744 mmHg 80%
    07:00 +5°C° 0.6 mm 8 mps 744 mmHg 81%
    08:00 +5°C° 0.6 mm 9 mps 745 mmHg 82%
    09:00 +5°C° 0.6 mm 10 mps 745 mmHg 82%
    10:00 +6°C° 0.3 mm 9 mps 747 mmHg 79%
    11:00 +6°C° 0.3 mm 8 mps 748 mmHg 76%
    12:00 +7°C° 0.3 mm 8 mps 750 mmHg 73%
    13:00 +6°C° 0.2 mm 8 mps 751 mmHg 70%
    14:00 +6°C° 0.2 mm 8 mps 753 mmHg 67%
    15:00 +6°C° 0.2 mm 8 mps 755 mmHg 64%
    16:00 +6°C° 0 mm 7 mps 757 mmHg 65%
    17:00 +5°C° 0 mm 7 mps 759 mmHg 67%
    18:00 +4°C° 0 mm 6 mps 761 mmHg 68%
    19:00 +4°C° 0 mm 6 mps 762 mmHg 69%
    20:00 +5°C° 0 mm 5 mps 764 mmHg 70%
    21:00 +3°C° 0 mm 5 mps 765 mmHg 70%
    22:00 +4°C° 0 mm 4 mps 766 mmHg 71%
    23:00 +4°C° 0 mm 4 mps 766 mmHg 72%

    Day after tomorrow, 10 December, Tuesday

    Time Temperature Precipitation Wind Pressure Humidity
    00:00 +4°C° 0 mm 3 mps 767 mmHg 73%
    01:00 +3°C° 0 mm 3 mps 767 mmHg 76%
    02:00 +3°C° 0 mm 3 mps 768 mmHg 80%
    03:00 +2°C° 0 mm 3 mps 768 mmHg 83%
    04:00 +2°C° 0 mm 3 mps 768 mmHg 83%
    05:00 +1°C° 0 mm 3 mps 769 mmHg 84%
    06:00 +1°C° 0 mm 3 mps 769 mmHg 84%
    07:00 0°C° 0 mm 4 mps 769 mmHg 81%
    08:00 0°C° 0 mm 4 mps 769 mmHg 78%
    09:00 +1°C° 0 mm 5 mps 769 mmHg 75%
    10:00 +1°C° 0 mm 5 mps 768 mmHg 72%
    11:00 +2°C° 0 mm 6 mps 767 mmHg 69%
    12:00 +3°C° 0 mm 7 mps 766 mmHg 66%
    13:00 +3°C° 0 mm 7 mps 765 mmHg 67%
    14:00 +3°C° 0 mm 7 mps 765 mmHg 67%
    15:00 +3°C° 0 mm 7 mps 764 mmHg 68%
    16:00 +3°C° 0 mm 7 mps 763 mmHg 68%
    17:00 +2°C° 0 mm 8 mps 762 mmHg 69%
    18:00 +2°C° 0 mm 8 mps 762 mmHg 70%
    19:00 +2°C° 0.1 mm 9 mps 761 mmHg 70%
    20:00 +2°C° 0.1 mm 9 mps 760 mmHg 70%
    21:00 +3°C° 0.1 mm 9 mps 759 mmHg 70%
    22:00 +3°C° 0.1 mm 9 mps 759 mmHg 73%
    23:00 +3°C° 0.1 mm 9 mps 758 mmHg 75%

    11 December, Wednesday

    Time Temperature Precipitation Wind Pressure Humidity
    00:00 +3°C° 0.1 mm 9 mps 757 mmHg 77%
    01:00 +4°C° 0.2 mm 8 mps 757 mmHg 80%
    02:00 +4°C° 0.2 mm 8 mps 757 mmHg 82%
    03:00 +5°C° 0.2 mm 7 mps 757 mmHg 85%
    04:00 +5°C° 0.4 mm 5 mps 757 mmHg 87%
    05:00 +5°C° 0.4 mm 4 mps 757 mmHg 89%
    06:00 +6°C° 0.4 mm 2 mps 757 mmHg 91%
    07:00 +6°C° 0.1 mm 2 mps 757 mmHg 90%
    08:00 +6°C° 0.1 mm 2 mps 756 mmHg 89%
    09:00 +6°C° 0.1 mm 2 mps 756 mmHg 88%
    10:00 +6°C° 0.1 mm 2 mps 755 mmHg 86%
    11:00 +6°C° 0.1 mm 2 mps 755 mmHg 84%
    12:00 +7°C° 0.1 mm 2 mps 754 mmHg 81%
    13:00 +5°C° 0.1 mm 3 mps 754 mmHg 82%
    14:00 +5°C° 0.1 mm 3 mps 753 mmHg 82%
    15:00 +5°C° 0.1 mm 3 mps 753 mmHg 83%
    16:00 +5°C° 0.1 mm 3 mps 753 mmHg 84%
    17:00 +4°C° 0.1 mm 4 mps 752 mmHg 85%
    18:00 +4°C° 0.1 mm 4 mps 752 mmHg 86%
    19:00 +4°C° 0.3 mm 4 mps 752 mmHg 85%
    20:00 +4°C° 0.3 mm 4 mps 752 mmHg 84%
    21:00 +5°C° 0.3 mm 4 mps 752 mmHg 84%
    22:00 +4°C° 0 mm 4 mps 751 mmHg 85%
    23:00 +4°C° 0 mm 4 mps 751 mmHg 86%

    12 December, Thursday

    Time Temperature Precipitation Wind Pressure Humidity
    00:00 +3°C° 0 mm 3 mps 751 mmHg 87%
    01:00 +3°C° 0 mm 3 mps 751 mmHg 88%
    02:00 +3°C° 0 mm 4 mps 751 mmHg 89%
    03:00 +3°C° 0 mm 4 mps 751 mmHg 89%
    04:00 +3°C° 0.1 mm 4 mps 752 mmHg 87%
    05:00 +3°C° 0.1 mm 4 mps 752 mmHg 84%
    06:00 +3°C° 0.1 mm 4 mps 753 mmHg 82%
    07:00 +2°C° 0 mm 5 mps 753 mmHg 81%
    08:00 +2°C° 0 mm 5 mps 754 mmHg 79%
    09:00 +2°C° 0 mm 5 mps 754 mmHg 78%
    10:00 +2°C° 0 mm 5 mps 753 mmHg 76%
    11:00 +3°C° 0 mm 6 mps 753 mmHg 74%
    12:00 +4°C° 0 mm 7 mps 752 mmHg 72%
    13:00 +3°C° 0 mm 7 mps 751 mmHg 73%
    14:00 +3°C° 0 mm 7 mps 750 mmHg 74%
    15:00 +3°C° 0 mm 7 mps 749 mmHg 75%
    16:00 +2°C° 0.1 mm 8 mps 747 mmHg 78%
    17:00 +2°C° 0.1 mm 8 mps 745 mmHg 80%
    18:00 +2°C° 0.1 mm 9 mps 743 mmHg 83%
    19:00 +3°C° 1 mm 10 mps 741 mmHg 83%
    20:00 +3°C° 1 mm 10 mps 739 mmHg 84%
    21:00 +4°C° 1 mm 11 mps 737 mmHg 85%
    22:00 +5°C° 1.6 mm 10 mps 736 mmHg 85%
    23:00 +6°C° 1.6 mm 9 mps 735 mmHg 86%

    13 December, Friday

    Time Temperature Precipitation Wind Pressure Humidity
    00:00 +6°C° 1.6 mm 9 mps 733 mmHg 87%
    01:00 +5°C° 0.6 mm 8 mps 734 mmHg 80%
    02:00 +4°C° 0.6 mm 8 mps 734 mmHg 74%
    03:00 +4°C° 0.6 mm 8 mps 734 mmHg 67%
    04:00 +2°C° 0.1 mm 8 mps 734 mmHg 68%
    05:00 +2°C° 0.1 mm 8 mps 735 mmHg 69%
    06:00 +2°C° 0.1 mm 8 mps 735 mmHg 70%
    07:00 +2°C° 0 mm 8 mps 736 mmHg 69%
    08:00 +2°C° 0 mm 8 mps 736 mmHg 68%
    09:00 +2°C° 0 mm 8 mps 737 mmHg 67%
    10:00 +3°C° 0 mm 9 mps 737 mmHg 67%
    11:00 +3°C° 0 mm 9 mps 738 mmHg 67%
    12:00 +3°C° 0 mm 9 mps 738 mmHg 67%
    13:00 +3°C° 0 mm 9 mps 739 mmHg 68%
    14:00 +3°C° 0 mm 9 mps 740 mmHg 69%
    15:00 +3°C° 0 mm 9 mps 740 mmHg 70%
    16:00 +3°C° 0 mm 9 mps 741 mmHg 69%
    17:00 +4°C° 0 mm 8 mps 742 mmHg 68%
    18:00 +4°C° 0 mm 8 mps 743 mmHg 67%
    19:00 +4°C° 0 mm 7 mps 743 mmHg 67%
    20:00 +3°C° 0 mm 7 mps 744 mmHg 67%
    21:00 +3°C° 0 mm 7 mps 744 mmHg 67%
    22:00 +3°C° 0 mm 6 mps 744 mmHg 69%
    23:00 +3°C° 0 mm 6 mps 744 mmHg 71%
    Show more